Location: Unspecified
(48.2082°N, 0.0000°E)
Time: 14:37:52
(UTC+00:00)

S-56A Canister/Altair - Pass Details

Date: 20 August 2020
Orbit: 633 x 2499 km, 38.9° (Epoch: 23 September)

Event Time Altitude Azimuth Distance (km) Brightness Sun altitude
Exits shadow 03:03:19 15° 173° (S) 1,899 9.2 -17.5°
Maximum altitude 03:05:00 17° 149° (SSE) 1,859 9.4 -17.3°
Drops below altitude 10° 03:08:44 10° 109° (ESE) 2,581 10.6 -16.9°
Sets 03:12:38 0° 92° (E) 3,852 11.9 -16.4°
